TimePST,TemperatureF,Dew PointF,Humidity,Sea Level PressureIn,VisibilityMPH,Wind Direction,Wind SpeedMPH,Gust SpeedMPH,PrecipitationIn,Events,Conditions,WindDirDegrees,DateUTC
12:45 AM,46.4,46.4,100,30.29,0.2,Calm,Calm,-,N/A,Fog,Fog,0,2011-11-28 08:45:00
12:53 AM,46.9,46.9,100,30.30,0.2,Calm,Calm,-,N/A,Fog,Fog,0,2011-11-28 08:53:00
1:53 AM,46.9,46.0,97,30.30,0.2,Calm,Calm,-,N/A,Fog,Fog,0,2011-11-28 09:53:00
2:53 AM,46.9,46.0,97,30.30,0.2,Calm,Calm,-,N/A,Fog,Fog,0,2011-11-28 10:53:00
3:37 AM,46.4,46.4,100,30.30,0.2,WNW,4.6,-,N/A,Fog,Fog,300,2011-11-28 11:37:00
3:53 AM,46.0,45.0,96,30.30,0.2,NW,3.5,-,N/A,Fog,Fog,320,2011-11-28 11:53:00
4:53 AM,46.9,46.0,97,30.29,0.2,Calm,Calm,-,N/A,Fog,Fog,0,2011-11-28 12:53:00
5:53 AM,46.9,46.0,97,30.28,0.2,Calm,Calm,-,N/A,Fog,Fog,0,2011-11-28 13:53:00
6:53 AM,46.0,45.0,96,30.28,0.2,Calm,Calm,-,N/A,Fog,Fog,0,2011-11-28 14:53:00
7:53 AM,46.0,45.0,96,30.29,0.2,Calm,Calm,-,N/A,Fog,Fog,0,2011-11-28 15:53:00
8:53 AM,46.4,46.4,100,30.30,0.2,Calm,Calm,-,N/A,Fog,Fog,0,2011-11-28 16:53:00
9:25 AM,46.4,46.4,100,30.30,0.5,Calm,Calm,-,N/A,Fog,Fog,0,2011-11-28 17:25:00
9:53 AM,46.9,46.9,100,30.30,0.8,Calm,Calm,-,N/A,,Mist,0,2011-11-28 17:53:00
10:06 AM,48.2,46.4,93,30.30,0.2,Variable,3.5,-,N/A,Fog,Fog,0,2011-11-28 18:06:00
10:12 AM,48.2,48.2,100,30.30,1.0,Calm,Calm,-,N/A,,Mist,0,2011-11-28 18:12:00
10:21 AM,48.2,48.2,100,30.30,0.8,Calm,Calm,-,N/A,,Overcast,0,2011-11-28 18:21:00
10:43 AM,48.2,48.2,100,30.32,3.0,West,3.5,-,N/A,,Overcast,280,2011-11-28 18:43:00
10:53 AM,48.9,48.0,97,30.31,4.0,Calm,Calm,-,N/A,,Overcast,0,2011-11-28 18:53:00
11:53 AM,51.1,48.0,89,30.28,3.0,Calm,Calm,-,N/A,,Mostly Cloudy,0,2011-11-28 19:53:00
12:01 PM,51.8,48.2,88,30.28,7.0,Calm,Calm,-,N/A,,Mostly Cloudy,0,2011-11-28 20:01:00
12:18 PM,51.8,48.2,88,30.27,7.0,Calm,Calm,-,N/A,,Scattered Clouds,0,2011-11-28 20:18:00
12:53 PM,53.1,48.9,86,30.27,8.0,SW,3.5,-,N/A,,Mostly Cloudy,220,2011-11-28 20:53:00
1:01 PM,53.6,48.2,82,30.28,8.0,SW,3.5,-,N/A,,Scattered Clouds,230,2011-11-28 21:01:00
1:53 PM,57.2,50.0,77,30.26,9.0,Calm,Calm,-,N/A,,Clear,0,2011-11-28 21:53:00
2:53 PM,59.0,48.9,69,30.24,10.0,Calm,Calm,-,N/A,,Clear,0,2011-11-28 22:53:00
3:53 PM,59.0,48.9,69,30.22,10.0,Calm,Calm,-,N/A,,Clear,0,2011-11-28 23:53:00
4:53 PM,55.0,50.0,83,30.22,10.0,Calm,Calm,-,N/A,,Clear,0,2011-11-29 00:53:00
5:53 PM,50.0,48.0,93,30.21,6.0,Calm,Calm,-,N/A,,Clear,0,2011-11-29 01:53:00
6:41 PM,48.2,46.4,93,30.21,1.8,Calm,Calm,-,N/A,,Clear,0,2011-11-29 02:41:00
6:49 PM,48.2,46.4,93,30.21,10.0,Calm,Calm,-,N/A,,Clear,0,2011-11-29 02:49:00
6:53 PM,48.0,46.0,93,30.21,10.0,Calm,Calm,-,N/A,,Clear,0,2011-11-29 02:53:00
7:53 PM,46.0,45.0,96,30.22,4.0,Calm,Calm,-,N/A,Fog,Clear,0,2011-11-29 03:53:00
8:53 PM,44.6,42.8,93,30.22,0.2,Calm,Calm,-,N/A,Fog,Fog,0,2011-11-29 04:53:00
9:21 PM,44.6,42.8,93,30.22,0.5,Calm,Calm,-,N/A,Fog,Fog,0,2011-11-29 05:21:00
9:29 PM,42.8,42.8,100,30.22,0.2,Calm,Calm,-,N/A,Fog,Fog,0,2011-11-29 05:29:00
9:45 PM,44.6,42.8,93,30.23,1.2,Calm,Calm,-,N/A,,Partly Cloudy,0,2011-11-29 05:45:00
9:53 PM,44.1,43.0,96,30.22,1.8,Calm,Calm,-,N/A,,Clear,0,2011-11-29 05:53:00
10:02 PM,42.8,42.8,100,30.23,0.2,ESE,3.5,-,N/A,Fog,Fog,120,2011-11-29 06:02:00
10:21 PM,42.8,41.0,93,30.23,0.2,ESE,3.5,-,N/A,Fog,Fog,110,2011-11-29 06:21:00
10:34 PM,44.6,42.8,93,30.23,0.2,Calm,Calm,-,N/A,Fog,Fog,0,2011-11-29 06:34:00
10:53 PM,45.0,44.1,97,30.23,0.2,Calm,Calm,-,N/A,Fog,Fog,0,2011-11-29 06:53:00
11:53 PM,44.1,43.0,96,30.23,0.2,Calm,Calm,-,N/A,Fog,Fog,0,2011-11-29 07:53:00